ONEWEB-0140 (47286 NORAD) Tracking and Keplerian Element Data

This shows tracking and keplerian element data for the satellite.

Feedback or suggestion? Click here.




ElementValue
Catalog47286
NameONEWEB-0140
Epoch Orbit512
Epoch Day21.16668981
Epoch Year2021
RAAN27.8907
Inclination87.3891
Eccentricity0.0010332
Argument of Perigee153.5764
Mean Anonmoly296.2123
Mean Motion14.96962692
Decay Rate-0.01474679
L11 47286U 20100AE 21021.16668981 -.01474679 00000-0 -14071+0 0 9993
L22 47286 87.3891 27.8907 0010332 153.5764 296.2123 14.96962692 5125

Live tracking and technical data element details for ONEWEB-0140 (NORAD 47286). ONEWEB-0140 can be tracked NOW for your location showing map with azimuth and elevation plus other details from your city location.

Track the satellite on the map from your city or location and see movement details for azimuth, elevation, latitude, longitude, range, height, and movement on the map or in text.







IsCatalogInMostPopularTable: catalog: 47286, numindb: 14
Update: records affected: 1



GetName: 47286 ONEWEB-0140

Hit Count: updated at: Sat, 23 Jan 2021 18:40:33 GMT